Home   Weather   Osaka   Past weeks

Flag for Japan Past Weather in Osaka, Japan — Yesterday and Last 2 Weeks

Now
64 °F

Mild.


Feels Like: 64 °F
Forecast: 52 / 73 °F
Wind: 7 mph from South

Location: Kansai International Airport

Current Time: May 1, 2017 at 1:54:41 am

Latest Report: May 1, 2017 at 1:00 am


Visibility: N/A

Pressure: 29.86 "Hg

Humidity: 56%

Dew Point: 48 °F

Location of OsakaLocation

Past Weather in Osaka — Graph

°F

Osaka Temperature Yesterday

Maximum temperature yesterday: 77 °F (at 2:30 pm)
Minimum temperature yesterday: 55 °F (at 4:00 am)
Average temperature yesterday: 65 °F

High & Low Weather Summary for the Past Weeks

 TemperatureHumidityPressure
High77 °F (Apr 30, 2:30 pm)100% (Apr 17, 12:00 am)30.27 "Hg (Apr 17, 12:00 am)
Low50 °F (Apr 23, 4:00 am)33% (Apr 22, 8:30 pm)29.27 "Hg (Apr 18, 12:37 am)
Average61 °F66%29.86 "Hg
* Reported Apr 16 12:00 am — May 1 12:30 am, Osaka, Weather by CustomWeather, © 2017

Note: Actual official high and low records may vary slightly from our data, if they occured in-between our weather recording intervals... More about our weather records

Advertising

Osaka Weather History for the Previous 24 Hours

Scroll right to see more
 ConditionsComfort  
Time TempWeatherWind HumidityBarometerVisibility
12:30 am
Mon, May 1
64 °FMild.5 mph60%29.89 "HgN/A
12:00 am66 °FMild.3 mph60%29.89 "HgN/A
11:30 pm
Sun, Apr 30
63 °FMild.9 mph68%29.89 "HgN/A
11:00 pm64 °FMild.8 mph68%29.89 "HgN/A
10:00 pm66 °FClear.8 mph56%29.89 "Hg10 mi
9:30 pm68 °FPassing clouds.6 mph53%29.89 "HgN/A
9:00 pm68 °FClear.8 mph49%29.86 "Hg10 mi
8:30 pm66 °FClear.9 mph60%29.86 "Hg10 mi
8:00 pm68 °FClear.8 mph49%29.83 "Hg10 mi
7:30 pm68 °FClear.9 mph53%29.83 "Hg10 mi
7:00 pm68 °FClear.20 mph53%29.83 "Hg10 mi
6:30 pm70 °FSunny.18 mph50%29.83 "Hg10 mi
6:00 pm70 °FSunny.17 mph50%29.83 "Hg10 mi
5:30 pm70 °FSunny.21 mph53%29.83 "Hg10 mi
5:13 pm70 °FSunny.18 mph53%29.83 "Hg10 mi
5:00 pm70 °FSunny.20 mph57%29.80 "Hg10 mi
4:30 pm72 °FSunny.20 mph53%29.80 "Hg10 mi
4:00 pm73 °FSunny.21 mph47%29.80 "Hg10 mi
3:00 pm75 °FSunny.16 mph44%29.83 "Hg10 mi
2:30 pm77 °FSunny.16 mph42%29.83 "Hg10 mi
2:00 pm75 °FSunny.17 mph44%29.83 "Hg10 mi
1:30 pm73 °FSunny.18 mph47%29.83 "Hg10 mi
12:30 pm72 °FSunny.18 mph47%29.86 "Hg10 mi
12:00 pm72 °FSunny.17 mph50%29.86 "Hg10 mi
11:30 am72 °FSunny.15 mph50%29.86 "Hg10 mi
11:00 am70 °FPassing clouds.3 mph53%29.89 "HgN/A
10:30 am70 °FSunny.5 mph46%29.89 "Hg10 mi
10:00 am66 °FSunny.6 mph60%29.89 "Hg10 mi
9:30 am61 °FPassing clouds.5 mph77%29.89 "HgN/A
9:00 am61 °FSunny.6 mph77%29.89 "Hg10 mi
8:30 am61 °FSunny.3 mph72%29.89 "Hg10 mi
8:00 am59 °FSunny.3 mph77%29.89 "Hg10 mi
7:30 am59 °FSunny.5 mph77%29.89 "Hg10 mi
7:00 am57 °FSunny.2 mph77%29.89 "Hg10 mi
6:30 am57 °FSunny.1 mph77%29.86 "Hg10 mi
6:00 am57 °FSunny.2 mph72%29.86 "Hg10 mi
5:30 am55 °FCool.2 mph77%29.86 "HgN/A
4:30 am55 °FCool.2 mph82%29.86 "HgN/A
4:00 am55 °FCool.3 mph77%29.86 "HgN/A
3:00 am57 °FCool.3 mph77%29.83 "HgN/A
2:30 am57 °FCool.6 mph77%29.83 "HgN/A
2:00 am57 °FCool.3 mph77%29.83 "HgN/A
1:30 am57 °FCool.1 mph77%29.83 "HgN/A
1:00 am57 °FCool.No wind72%29.83 "HgN/A
Weather by CustomWeather, © 2017

See weather overviewHow to use our weather pages